[[[{"header":{"parameterUnit":"kt","parameterCategory":2,"dx":1,"dy":1,"la1":30.253999710083008,"la2":30.299108505249023,"lo1":-89.0895004272461,"lo2":-89.04439544677734,"nx":28,"ny":28,"refTime":"2022-10-23T21:00:00:Z","depth":0,"parameterNumber":1,"parameterNumberName":"U-component_of_WINDS"},"data":[-9.5255,-9.5315,-9.5288,-9.5345,-9.5329,-9.5362,-9.5365,-9.5366,-9.5359,-9.5396,-9.5412,-9.539,-9.537,-9.5382,-9.5398,-9.5386,-9.5393,-9.5438,-9.5416,-9.5243,-9.5217,-9.5192,-9.5173,-9.5442,-9.5442,-9.5596,-9.5597,-9.5598,-9.5141,-9.5127,-9.5148,-9.5149,-9.5167,-9.5109,-9.5104,-9.5122,-9.5153,-9.5145,-9.5158,-9.5187,-9.5206,-9.5169,-9.5181,-9.5209,-9.5179,-9.5214,-9.5207,-9.5204,-9.5021,-9.5002,-9.5238,-9.5238,-9.5238,-9.5238,-9.5238,-9.5238,-9.4925,-9.4962,-9.4944,-9.4965,-9.4958,-9.4958,-9.4988,-9.4957,-9.4976,-9.4984,-9.4945,-9.4978,-9.4962,-9.4959,-9.495,-9.4975,-9.4929,-9.4956,-9.4961,-9.4968,-9.4979,-9.4759,-9.4976,-9.4975,-9.4975,-9.4974,-9.4973,0,-9.4755,-9.4728,-9.4743,-9.4752,-9.4766,-9.4768,-9.4765,-9.4783,-9.471,-9.4729,-9.4752,-9.476,-9.4777,-9.4794,-9.4797,-9.478,-9.4713,-9.4704,-9.4722,-9.4737,-9.4755,-9.4742,-9.4441,-9.4695,-9.4692,-9.469,-9.4689,-9.4688,-9.453,-9.4576,-9.454,-9.4556,-9.4544,-9.457,-9.4579,-9.451,-9.4522,-9.4507,-9.4542,-9.456,-9.4568,-9.461,-9.4567,-9.4578,-9.4543,-9.4644,-9.4544,-9.4562,-9.454,-9.4535,-9.4539,-9.4661,-9.4665,-9.4668,-9.467,0,-9.4406,-9.4353,-9.4413,-9.437,-9.4361,-9.4413,-9.4375,-9.4408,-9.4371,-9.4411,-9.4416,-9.4356,-9.4379,-9.4319,-9.4332,-9.43,-9.4385,-9.4355,-9.4392,-9.438,-9.4461,-9.4452,-9.4738,-9.4771,-9.4499,-9.4501,-9.4504,0,-9.419,-9.4252,-9.4167,-9.4204,-9.4273,-9.4198,-9.4268,-9.424,-9.4221,-9.4251,-9.4167,-9.4197,-9.4114,-9.4137,-9.4088,-9.4148,-9.4151,-9.4127,-9.4112,-9.4131,-9.4133,-9.4128,-9.4113,-9.4081,-9.408,-9.4079,-9.4078,0,-9.3995,-9.4022,-9.4083,-9.4079,-9.4035,-9.4066,-9.4049,-9.4024,-9.4031,-9.4032,-9.4035,-9.4041,-9.4043,-9.405,-9.3986,-9.392,-9.4058,-9.3954,-9.4033,-9.4035,-9.4059,-9.4057,-9.4334,-9.4076,-9.4075,-9.4075,-9.4074,0,-9.3807,-9.3808,-9.3905,-9.3865,-9.3874,-9.3914,-9.3912,-9.3933,-9.3912,-9.3883,-9.3882,-9.3813,-9.3861,-9.3763,-9.3827,-9.3759,-9.3767,-9.3748,-9.3753,-9.3745,-9.3634,-9.3792,-9.4067,-9.409,-9.3752,-9.3749,-9.3747,0,-9.3599,-9.3679,-9.3612,-9.3705,-9.3732,-9.3631,-9.3675,-9.3658,-9.3622,-9.364,-9.36,-9.362,-9.3533,-9.3529,-9.3571,-9.3528,-9.3618,-9.3515,-9.3539,-9.3541,-9.3542,-9.3797,-9.3848,-9.4015,-9.3712,-9.3715,-9.3718,0,-9.3426,-9.3367,-9.3388,-9.3378,-9.3341,-9.3362,-9.3413,-9.3415,-9.343,-9.342,-9.3458,-9.3487,-9.3421,-9.3415,-9.3358,-9.3404,-9.3555,-9.3325,-9.3323,-9.3365,-9.3689,-9.3739,-9.3767,-9.3507,-9.3511,-9.3515,-9.369,0,-9.3149,-9.318,-9.3235,-9.3213,-9.322,-9.3273,-9.3201,-9.3218,-9.3162,-9.3118,-9.3175,-9.3139,-9.3138,-9.3154,-9.3097,-9.3222,-9.3189,-9.3117,-9.3008,-9.3178,-9.3233,-9.3256,-9.2932,-9.2929,-9.2926,-9.2923,0,0,-9.296,-9.3,-9.2918,-9.2961,-9.296,-9.2848,-9.2911,-9.2897,-9.287,-9.2873,-9.2814,-9.2846,-9.2817,-9.2892,-9.2939,-9.294,-9.2954,-9.2895,-9.3099,-9.3119,-9.3137,-9.3198,-9.3223,-9.2918,-9.2917,-9.2916,-9.2915,0,-9.284,-9.2815,-9.2877,-9.2859,-9.2828,-9.2778,-9.2794,-9.2742,-9.2715,-9.2768,-9.2671,-9.2695,-9.272,-9.2703,-9.2697,-9.2888,-9.2809,-9.2894,-9.302,-9.3071,-9.3095,-9.3116,-9.3181,-9.3206,-9.2907,-9.2908,-9.2908,0,-9.2654,-9.2615,-9.2636,-9.2627,-9.2604,-9.2634,-9.2504,-9.254,-9.256,-9.2428,-9.248,-9.2449,-9.2419,-9.2499,-9.2532,-9.2477,-9.2681,-9.2603,-9.262,-9.2619,-9.2665,-9.2694,-9.272,-9.2378,-9.2377,-9.2375,0,0,-9.2559,-9.2585,-9.2516,-9.2595,-9.2588,-9.2512,-9.2518,-9.2459,-9.2433,-9.2423,-9.2378,-9.2357,-9.237,-9.2381,-9.2389,-9.2488,-9.2473,-9.2541,-9.2566,-9.2587,-9.2597,-9.2648,-9.2677,-9.237,-9.237,-9.2369,0,0,-9.2512,-9.2435,-9.238,-9.2462,-9.2442,-9.2376,-9.2428,-9.2358,-9.2357,-9.2341,-9.2241,-9.223,-9.2303,-9.2275,-9.2207,-9.2347,-9.2243,-9.2257,-9.2361,-9.2392,-9.2416,-9.2418,-9.2063,0,0,0,0,0,-9.2347,-9.2445,-9.2396,-9.2398,-9.2382,-9.2405,-9.2402,-9.2321,-9.2249,-9.2293,-9.2245,-9.2159,-9.2218,-9.2155,-9.2159,-9.2232,-9.2295,-9.2308,-9.2321,-9.2478,-9.2511,-9.2538,0,0,0,0,0,0,-9.2347,-9.235,-9.2393,-9.2334,-9.2329,-9.2401,-9.2261,-9.2241,-9.2243,-9.2226,-9.2172,-9.2158,-9.2088,-9.2148,-9.2152,-9.2224,-9.2061,-9.23,-9.2311,-9.2321,-9.2489,-9.2516,-9.2539,0,0,0,0,0,-9.2347,-9.2348,-9.2343,-9.2331,-9.2327,-9.2244,-9.2256,-9.2239,-9.2238,-9.2161,-9.2144,-9.2176,-9.2093,-9.209,-9.215,-9.2224,-9.2057,-9.2059,-9.2307,-9.2316,-9.2324,-9.2502,0,0,0,0,0,0,-9.2346,-9.2333,-9.234,-9.2336,-9.2286,-9.2238,-9.2228,-9.2237,-9.2171,-9.2156,-9.216,-9.2148,-9.2097,-9.2094,-9.2093,-9.2229,-9.2055,-9.2057,-9.2058,-9.2314,-9.2321,-9.2327,0,0,0,0,0,0,-9.2331,-9.233,-9.2338,-9.2286,-9.2275,-9.2233,-9.2224,-9.2261,-9.2172,-9.2174,-9.2161,-9.2156,-9.2098,-9.2098,-9.2097,-9.2159,-9.2052,-9.2054,-9.2056,-9.2056,-9.232,-9.2325,0,0,0,0,0,0,-9.2329,-9.2328,-9.2286,-9.2278,-9.2268,-9.2215,-9.2265,-9.2252,-9.2129,-9.2179,-9.2115,-9.2109,-9.2104,-9.2101,-9.21,-9.2163,-9.216,-9.2052,-9.2054,-9.2055,-9.2055,0,0,0,0,0,0,0,-9.2328,-9.2352,-9.2366,-9.2272,-9.2262,-9.2298,-9.2297,-9.2295,-9.2127,-9.2122,-9.2117,-9.2112,-9.2042,-9.2044,-9.2046,-9.2166,0,0,-9.2052,-9.2053,0,0,0,0,0,0,0,0,-9.2351,-9.2352,-9.2366,-9.2365,-9.2364,-9.2298,-9.2297,-9.2296,-9.2126,-9.2122,-9.2118,-9.2114,-9.2042,-9.2044,-9.2046,0,0,0,0,0,0,0,0,0,0,0,0,0,0,0,-9.2365,-9.2365,0,-9.2297,-9.2297,-9.2296,-9.2126,-9.2122,-9.2119,-9.2115,-9.2043,-9.2044,-9.2045,0,0,0,0,0,0,0,0,0,0,0,0,0,0,0,0,0,0,0,0,0,0,0,0,0,0,0,0,0,0,0,0,0,0,0,0,0,0,0,0,0,0,0,0,0,0,0,0,0,0,0,0,0,0,0,0,0,0,0,0,0,0,0,0,0,0,0,0,0]}],[{"header":{"parameterUnit":"kt","parameterCategory":2,"dx":1,"dy":1,"la1":30.253999710083008,"la2":30.299108505249023,"lo1":-89.0895004272461,"lo2":-89.04439544677734,"nx":28,"ny":28,"refTime":"2022-10-23T21:00:00:Z","depth":0,"parameterNumber":2,"parameterNumberName":"V-component_of_WINDS"},"data":[2.345,2.3359,2.3347,2.3236,2.3206,2.3128,2.3095,2.3051,2.3013,2.2915,2.2855,2.283,2.2784,2.2707,2.264,2.2629,2.2602,2.2581,2.2572,2.2684,2.2699,2.2713,2.2736,2.2574,2.2574,2.2458,2.2457,2.2457,2.3539,2.351,2.3447,2.3378,2.3324,2.3339,2.3284,2.3237,2.3164,2.3115,2.3055,2.2966,2.2892,2.2851,2.2777,2.2731,2.2732,2.2712,2.2715,2.2708,2.2827,2.2852,2.2713,2.2713,2.2713,2.2713,2.2713,2.2713,2.3697,2.3642,2.3594,2.3525,2.3486,2.3439,2.3383,2.3355,2.3291,2.3215,2.3209,2.3125,2.307,2.2972,2.2934,2.2866,2.2885,2.2858,2.2851,2.2845,2.2841,2.3015,2.2852,2.2852,2.2853,2.2853,2.2853,0,2.3809,2.3804,2.3742,2.3677,2.3625,2.3572,2.3521,2.3485,2.3463,2.341,2.3332,2.3284,2.3188,2.3111,2.3036,2.3002,2.3008,2.3005,2.2987,2.299,2.3005,2.2998,2.3196,2.301,2.3011,2.3012,2.3013,2.3013,2.397,2.3905,2.3847,2.3806,2.3775,2.3706,2.3662,2.3647,2.36,2.3532,2.3482,2.3405,2.3343,2.3215,2.3178,2.3104,2.3106,2.3038,2.3094,2.3102,2.3107,2.3112,2.3106,2.3027,2.3025,2.3024,2.3023,0,2.4062,2.4041,2.3937,2.3884,2.3868,2.3801,2.3754,2.3696,2.3673,2.3589,2.3568,2.3532,2.3453,2.3426,2.3328,2.3317,2.3202,2.3205,2.3223,2.3223,2.316,2.3167,2.2957,2.2929,2.3095,2.3093,2.3092,0,2.4191,2.4106,2.408,2.402,2.3925,2.3913,2.3818,2.3789,2.3742,2.3676,2.368,2.3617,2.3593,2.3525,2.3507,2.3408,2.3389,2.3374,2.3371,2.3375,2.3377,2.3348,2.3357,2.3363,2.3364,2.3365,2.3365,0,2.4339,2.4223,2.4126,2.4096,2.4029,2.3982,2.3951,2.3898,2.3853,2.379,2.3761,2.3687,2.3646,2.3588,2.3567,2.3607,2.3445,2.3495,2.343,2.343,2.3395,2.3398,2.3219,2.3367,2.3367,2.3368,2.3368,0,2.444,2.4381,2.4241,2.4187,2.4156,2.409,2.402,2.3957,2.3899,2.3885,2.3834,2.3833,2.3744,2.3797,2.3673,2.3732,2.3691,2.3668,2.3663,2.3654,2.3714,2.3618,2.3449,2.3431,2.3645,2.3648,2.365,0,2.4616,2.4469,2.4459,2.4325,2.4254,2.4266,2.4192,2.4141,2.4116,2.405,2.4021,2.3943,2.3977,2.3949,2.3891,2.3857,2.378,2.3866,2.3768,2.3765,2.3787,2.363,2.3613,2.3489,2.3679,2.3676,2.3674,0,2.475,2.467,2.4647,2.4613,2.4545,2.4483,2.4397,2.432,2.4278,2.4217,2.4145,2.4033,2.4055,2.4008,2.3997,2.3938,2.3831,2.3968,2.3966,2.3946,2.369,2.3675,2.3654,2.3837,2.3834,2.3831,2.3697,0,2.4912,2.4834,2.477,2.4692,2.4641,2.4554,2.4529,2.4478,2.4476,2.4451,2.4342,2.4288,2.4205,2.4173,2.4167,2.4041,2.4058,2.408,2.4129,2.4026,2.3981,2.3963,2.4198,2.42,2.4201,2.4202,0,0,2.5086,2.4975,2.4964,2.4882,2.4838,2.4851,2.4761,2.4718,2.4631,2.46,2.4628,2.4463,2.4417,2.4286,2.4252,2.4217,2.4192,2.4227,2.4075,2.4061,2.4048,2.4,2.3982,2.4203,2.4204,2.4204,2.4204,0,2.5141,2.51,2.5012,2.4969,2.4905,2.4884,2.4863,2.48,2.4779,2.4671,2.468,2.461,2.4476,2.4429,2.4386,2.4243,2.4252,2.4219,2.4154,2.4086,2.4071,2.4057,2.4008,2.399,2.4207,2.4207,2.4207,0,2.527,2.5226,2.5181,2.5082,2.5038,2.4962,2.501,2.4926,2.4869,2.4881,2.4774,2.4739,2.4671,2.4549,2.4493,2.4516,2.431,2.4368,2.436,2.4353,2.4287,2.4268,2.4252,2.4469,2.447,2.4471,0,0,2.532,2.5248,2.5194,2.5091,2.5064,2.503,2.4986,2.4979,2.492,2.4896,2.4852,2.4792,2.4714,2.4663,2.4588,2.4458,2.4443,2.4402,2.4389,2.4379,2.4367,2.4298,2.4279,2.4475,2.4475,2.4475,0,0,2.5343,2.5279,2.5288,2.5166,2.5111,2.5049,2.4986,2.4994,2.4925,2.4932,2.4912,2.4895,2.478,2.4744,2.4802,2.4605,2.4654,2.4639,2.4633,2.4616,2.4604,2.4615,2.4839,0,0,0,0,0,2.5386,2.5288,2.5297,2.5272,2.5144,2.5045,2.5028,2.5012,2.5049,2.4999,2.4964,2.4976,2.4772,2.4822,2.4796,2.4732,2.4526,2.4517,2.4508,2.4469,2.4452,2.4438,0,0,0,0,0,0,2.5377,2.5347,2.5299,2.5233,2.5204,2.5048,2.5107,2.51,2.5054,2.5058,2.4983,2.4974,2.4956,2.4834,2.4811,2.4751,2.4847,2.4522,2.4515,2.4508,2.4463,2.445,2.4438,0,0,0,0,0,2.5369,2.5345,2.5144,2.5234,2.5209,2.5165,2.511,2.5105,2.5068,2.5013,2.5004,2.5061,2.4955,2.4934,2.482,2.4762,2.4862,2.4854,2.4517,2.4511,2.4506,2.4456,0,0,0,0,0,0,2.5363,2.5338,2.5139,2.513,2.5271,2.5173,2.5158,2.5109,2.5026,2.5017,2.509,2.5094,2.4952,2.4937,2.4921,2.4767,2.4875,2.4866,2.4861,2.4513,2.4508,2.4504,0,0,0,0,0,0,2.5351,2.5331,2.5134,2.5181,2.5178,2.5181,2.5167,2.5067,2.5024,2.5107,2.5109,2.5093,2.4975,2.4938,2.4926,2.477,2.4885,2.4877,2.4871,2.4867,2.4509,2.4505,0,0,0,0,0,0,2.5342,2.5325,2.5183,2.5181,2.5178,2.5083,2.5091,2.496,2.5069,2.5111,2.5078,2.5082,2.4976,2.4963,2.4929,2.4778,2.4772,2.4885,2.4879,2.4875,2.4872,0,0,0,0,0,0,0,2.5335,2.5454,2.5189,2.518,2.5178,2.5053,2.5051,2.5048,2.507,2.5074,2.5077,2.508,2.4932,2.4923,2.4914,2.4785,0,0,2.4886,2.4882,0,0,0,0,0,0,0,0,2.5461,2.5455,2.5189,2.5187,2.5185,2.5052,2.5051,2.5049,2.5071,2.5074,2.5076,2.5079,2.493,2.4923,2.4915,0,0,0,0,0,0,0,0,0,0,0,0,0,0,0,2.5188,2.5187,0,2.5052,2.5051,2.5049,2.5071,2.5073,2.5076,2.5078,2.4928,2.4922,2.4916,0,0,0,0,0,0,0,0,0,0,0,0,0,0,0,0,0,0,0,0,0,0,0,0,0,0,0,0,0,0,0,0,0,0,0,0,0,0,0,0,0,0,0,0,0,0,0,0,0,0,0,0,0,0,0,0,0,0,0,0,0,0,0,0,0,0,0,0,0]}]]]